Theta_e
282 282 283 283 284 283 281 283 279 280 281 286 287 288 290 291 292 291 292 292 293 293 292 291 291 291 291 291 293 295 296 296 297 299 301 301 301 301 302 302 302 302 302 302
279 282 282 281 283 283 284 284 284 284 284 291 293 293 291 291 291 290 291 292 293 293 291 290 290 290 290 289 291 294 294 294 297 299 299 299 299 299 299 299 299 299 300 300
275 279 279 276 281 282 283 285 285 282 287 291 290 290 289 290 291 291 291 292 292 292 291 290 290 290 290 289 289 291 292 293 293 295 297 297 297 296 297 297 298 297 297 298
278 277 271 279 282 284 284 285 287 287 289 289 289 290 290 290 290 291 291 291 291 292 291 290 290 290 289 288 288 289 290 291 292 292 294 294 294 294 294 296 296 296 295 296
276 276 277 280 281 281 281 282 287 287 289 290 289 288 290 290 290 290 290 290 291 292 291 289 289 289 288 288 287 287 288 289 290 290 291 292 292 292 293 293 293 293 293 294
279 274 270 276 282 285 284 278 284 287 288 287 287 283 285 288 290 291 292 291 291 291 289 289 289 289 287 288 287 287 287 288 289 289 289 290 290 291 292 291 291 291 291 290
279 278 278 282 283 286 275 278 283 286 286 285 285 287 287 289 290 291 292 292 292 290 289 290 290 288 288 288 287 289 288 288 288 288 288 288 289 290 290 290 289 288 287 287
280 277 272 284 283 281 283 283 286 286 286 286 288 288 288 289 289 290 290 291 291 290 290 290 290 288 288 288 290 289 288 287 287 287 287 288 287 287 288 288 287 287 286 286
279 279 284 283 284 286 286 285 286 287 288 289 288 288 289 289 290 290 290 290 290 290 290 290 289 289 289 291 289 288 287 287 286 286 285 286 286 286 286 286 286 286 286 285
280 282 285 287 287 286 286 287 289 288 289 289 288 289 289 288 288 288 289 288 289 289 288 289 289 289 289 291 289 288 287 287 286 285 285 284 285 285 285 285 285 286 286 286
278 282 285 286 285 287 287 286 286 287 287 288 287 288 288 287 287 286 286 286 287 287 288 289 290 289 290 290 288 287 287 287 287 286 286 286 285 285 284 285 286 286 286 286
281 285 283 283 281 283 284 285 286 285 285 285 286 286 286 285 285 285 285 286 286 286 287 288 289 289 290 290 288 288 287 288 287 287 286 286 285 285 288 289 289 290 291 289
286 285 285 283 283 282 285 288 287 285 285 285 285 285 284 284 284 286 287 285 286 286 287 288 288 288 290 289 288 287 288 288 288 288 286 285 284 283 284 286 289 291 291 291
286 284 285 286 286 285 284 285 286 286 285 285 285 284 284 284 284 284 284 285 286 286 287 288 288 288 289 289 288 287 287 290 287 287 286 286 284 285 285 284 285 285 287 290
286 285 287 287 284 284 285 283 283 283 284 283 283 284 284 284 285 286 287 287 287 287 288 288 288 288 290 289 288 287 286 286 286 287 286 286 285 284 284 284 284 284 283 284
287 287 286 284 285 285 285 284 282 284 283 283 283 284 285 285 286 286 286 285 285 285 286 286 286 287 288 288 287 287 286 288 289 286 285 285 285 284 283 283 283 283 283 283
282 283 284 283 283 283 283 284 283 284 283 283 283 285 285 286 285 284 284 284 284 284 285 284 285 286 287 287 287 286 286 286 289 288 285 285 285 284 284 283 282 283 283 285
284 284 285 284 283 283 284 283 282 282 282 284 285 285 285 284 284 284 284 283 283 283 284 285 285 286 286 285 285 285 285 285 284 284 284 284 284 284 284 284 284 284 285 285
283 282 282 282 283 283 283 283 283 283 284 285 285 284 284 284 284 284 283 282 283 283 285 285 286 286 284 285 286 285 284 283 283 283 284 286 286 286 284 284 284 285 285 284
281 282 283 283 284 284 284 284 284 284 285 285 284 284 283 284 284 283 283 283 284 285 286 285 285 284 284 284 286 284 285 285 284 284 284 284 285 285 285 286 285 284 284 283
282 282 283 283 283 284 284 284 284 284 285 284 284 284 284 285 284 283 282 281 285 286 286 286 286 285 284 285 286 286 285 284 284 283 283 284 284 285 285 285 285 284 284 283
282 281 282 283 284 284 285 284 284 284 284 284 284 283 283 283 284 283 284 284 286 289 285 284 284 285 285 288 286 285 284 284 284 284 284 284 285 285 285 285 285 284 283 283
285 283 284 284 282 283 283 285 286 285 285 285 285 285 284 285 285 283 285 287 286 286 286 284 285 287 288 287 285 284 284 284 284 284 284 285 285 285 285 285 285 284 283 283
287 287 286 285 284 283 283 286 283 285 285 285 285 286 285 284 285 285 286 289 290 288 286 285 286 289 289 285 284 284 283 283 284 285 285 287 286 286 285 285 284 283 283 283
287 287 284 284 283 284 283 284 283 282 283 285 286 286 286 286 285 288 284 284 287 287 285 287 289 289 287 284 284 284 284 284 284 285 285 285 285 285 284 283 283 282 281 279
285 287 287 288 287 287 286 283 283 285 283 284 285 285 286 286 285 285 284 285 283 285 285 285 285 285 284 282 283 283 283 283 284 284 285 285 285 284 283 282 280 281 279 278
284 287 286 286 286 285 284 284 282 283 285 284 284 285 285 285 285 286 286 285 284 284 284 284 284 284 283 283 283 283 283 283 284 284 284 284 282 281 280 279 278 278 277 277
Wind_Speed
6 9 8 13 11 11 16 17 10 2 14 21 9 8 8 8 6 6 8 7 7 6 6 6 5 5 5 5 4 5 5 5 6 6 6 6 7 8 8 8 7 7 7 6
6 8 9 16 18 19 21 20 26 20 29 23 26 16 11 11 9 8 9 9 8 8 6 7 6 5 4 5 4 4 4 5 6 6 6 6 7 7 7 6 6 6 7 6
6 4 8 11 16 23 14 11 23 21 28 14 17 13 7 9 9 13 10 9 7 8 7 7 6 5 5 4 3 4 3 3 3 4 5 6 6 6 6 6 5 6 6 5
5 7 4 6 5 3 16 16 20 17 20 12 9 7 7 8 13 16 11 8 8 6 6 6 4 5 3 4 4 4 4 3 2 3 3 3 4 4 4 3 4 4 4 4
3 6 14 9 2 5 8 9 22 25 24 20 4 7 16 7 5 11 7 7 6 5 5 5 6 5 4 4 5 4 4 3 3 3 3 3 3 3 2 3 3 3 3 5
1 4 7 4 3 2 2 7 5 14 16 6 5 2 6 4 2 5 5 5 6 6 4 5 6 5 5 6 5 6 5 4 4 3 3 3 3 3 1 1 2 2 2 3
7 5 11 11 6 1 2 7 2 7 7 7 6 8 4 2 5 4 5 6 5 6 7 9 6 6 7 7 9 7 5 5 5 4 5 4 3 2 2 2 2 2 2 2
6 6 13 8 6 7 5 5 3 3 5 7 8 6 6 7 7 7 8 7 7 6 9 8 7 7 9 10 10 5 5 5 6 5 4 3 4 3 3 3 3 3 3 3
11 11 4 6 5 5 2 3 5 4 6 7 7 7 8 7 7 8 8 6 5 7 9 7 7 8 9 13 5 6 5 7 7 5 5 5 4 4 2 2 3 3 3 3
2 7 15 17 15 9 8 15 12 8 8 6 10 11 9 8 8 6 6 7 5 6 7 10 6 8 12 10 5 5 7 8 5 6 6 5 4 4 3 4 4 4 4 4
9 14 17 18 11 14 15 6 9 9 10 12 8 13 10 8 8 7 7 6 5 6 7 11 7 8 8 10 5 7 7 8 6 5 6 5 5 5 6 6 6 4 4 4
13 8 9 9 3 3 6 7 9 7 8 7 9 11 6 8 7 6 7 6 7 7 7 9 7 8 8 7 7 8 8 7 7 6 6 5 4 5 11 14 11 13 13 8
22 6 7 7 9 5 12 17 13 9 10 9 6 7 5 5 4 8 7 7 8 8 7 6 7 8 7 5 6 8 9 8 6 7 6 6 5 6 7 4 14 16 15 14
13 8 23 11 13 5 8 11 10 8 9 8 8 5 5 5 5 6 7 6 6 6 6 5 5 7 5 4 5 6 6 12 4 5 5 5 5 6 5 6 6 4 11 14
16 11 20 14 8 12 11 7 9 12 9 9 7 7 5 7 6 6 6 6 5 5 4 4 5 7 5 2 3 5 4 5 5 4 4 6 4 5 6 6 7 7 3 6
14 20 14 17 18 15 12 13 12 17 8 8 7 7 7 6 6 5 5 3 3 5 6 5 5 4 3 2 2 3 4 9 9 4 4 5 5 5 5 6 6 7 6 7
9 18 14 15 12 10 11 11 11 12 7 7 7 6 5 5 5 5 5 4 4 6 6 5 6 4 4 3 2 3 3 3 7 4 4 5 5 6 5 5 6 6 7 8
10 16 18 17 17 16 15 10 8 8 7 6 6 6 5 5 6 5 6 4 4 6 5 5 4 5 4 4 3 3 3 3 3 4 3 4 5 5 5 6 6 7 6 6
9 12 13 11 11 11 11 9 6 5 5 5 5 6 6 5 5 5 4 5 5 5 4 4 4 3 4 4 5 3 3 4 4 4 5 6 5 5 5 6 6 6 6 5
9 8 8 7 8 5 6 5 3 3 4 4 4 4 5 6 6 5 4 6 6 6 4 5 5 4 4 5 7 2 3 5 6 7 7 6 5 5 5 9 7 6 6 6
8 8 9 6 6 7 7 6 5 6 5 4 5 5 5 5 4 4 4 4 7 6 6 7 5 4 3 5 5 4 3 4 5 6 6 6 6 6 6 6 6 6 5 5
8 7 8 8 7 6 5 4 4 5 5 6 6 6 6 7 6 6 8 10 5 8 5 5 5 9 6 9 4 4 4 4 5 5 6 7 7 6 6 5 5 5 5 5
8 6 8 8 7 7 7 7 6 6 7 7 7 7 6 6 4 4 8 6 6 9 7 6 10 14 12 6 4 5 5 5 5 6 7 7 6 6 5 5 4 4 4 4
9 8 8 8 6 6 8 10 6 7 8 8 8 8 6 5 6 7 9 13 14 10 7 6 9 13 11 3 4 5 5 6 5 5 7 11 6 5 5 4 3 3 3 4
9 11 6 9 8 9 9 10 6 6 8 11 12 11 11 8 9 7 3 4 9 9 7 12 14 13 5 4 4 5 5 5 5 5 6 6 6 5 3 3 3 3 2 2
12 10 10 12 10 9 8 5 7 7 5 9 8 6 7 6 5 6 5 9 6 9 7 5 4 5 4 4 5 5 5 5 5 5 7 5 5 3 3 2 2 2 2 2
9 14 9 9 6 7 7 7 6 8 7 8 10 6 6 5 5 6 7 6 6 6 5 5 4 5 4 4 4 4 4 4 6 5 4 3 2 2 1 2 2 2 3 3
Wind_Direction
241 237 228 243 232 202 213 214 209 165 229 260 262 251 252 257 265 285 279 275 257 249 236 246 247 262 279 289 318 338 5 2 1 349 2 8 12 13 16 20 19 20 25 30
273 251 245 254 241 228 226 228 244 254 275 277 272 276 275 266 268 259 268 258 252 245 232 238 243 246 261 276 301 329 356 357 349 352 10 16 17 17 22 22 24 29 30 34
268 334 297 273 236 215 212 212 221 232 241 260 282 275 264 266 246 260 255 252 254 240 227 225 226 226 245 266 288 298 305 326 354 -0 18 20 22 25 24 20 23 30 26 27
290 357 276 249 295 214 213 234 219 243 254 240 251 283 281 252 263 275 262 251 243 232 230 229 220 218 240 254 265 268 267 283 334 0 10 10 18 26 14 10 28 32 31 30
285 287 294 297 12 164 174 274 215 224 245 255 286 333 294 248 242 253 262 265 252 230 214 214 211 214 217 257 260 267 270 281 300 316 326 339 352 339 338 349 19 33 20 22
186 290 264 277 339 222 193 291 215 205 235 230 125 255 263 252 241 271 259 250 249 226 219 219 224 199 208 238 244 248 239 234 240 248 263 279 279 284 275 297 332 358 26 18
223 263 276 245 232 321 29 249 191 185 211 167 191 209 215 230 276 253 251 261 237 218 223 226 206 189 220 230 238 235 222 221 231 228 233 238 262 241 251 264 270 300 315 335
181 219 268 165 89 174 220 310 314 273 229 204 235 269 263 278 274 279 277 276 249 238 238 233 207 198 229 234 239 214 216 226 236 235 236 230 236 249 256 274 296 300 313 321
198 216 268 226 229 229 186 246 279 240 244 230 249 253 262 263 272 268 264 265 248 235 253 251 223 209 234 246 217 213 215 230 232 231 235 237 242 252 259 233 249 270 260 268
320 264 248 244 253 252 250 245 262 244 242 222 247 254 248 264 272 265 260 264 255 259 259 268 239 227 234 256 212 206 228 240 235 236 245 239 238 234 236 240 237 236 238 246
261 279 277 262 231 248 266 276 264 256 241 250 244 256 245 259 257 254 261 263 239 251 256 263 263 246 236 245 194 217 233 246 237 230 237 252 238 232 231 236 224 231 232 232
256 247 236 264 271 238 240 258 267 255 272 246 215 243 231 253 253 254 266 269 270 256 250 261 261 259 249 229 188 208 230 240 234 231 237 237 242 261 242 245 244 241 244 230
253 262 255 279 271 232 250 265 261 251 240 260 252 229 239 250 258 278 271 267 264 263 260 261 273 279 275 248 204 218 229 236 229 223 226 234 230 239 265 248 244 243 245 247
259 293 282 254 268 260 236 256 270 256 249 228 239 233 243 256 276 270 271 263 272 273 268 259 264 269 280 259 223 232 238 250 245 245 235 230 230 237 238 252 265 258 241 241
270 228 258 288 284 276 275 269 260 259 252 246 220 235 232 250 258 265 277 282 280 270 289 310 306 300 323 307 223 240 234 237 236 232 229 242 230 231 235 243 247 256 253 251
302 291 282 270 274 268 269 274 256 269 241 234 232 231 232 232 252 265 275 279 312 298 296 285 269 260 298 311 265 243 246 256 254 230 233 226 223 229 232 233 245 252 251 245
293 292 308 290 291 285 251 251 248 259 250 219 224 207 198 217 249 264 277 291 283 280 281 281 281 300 305 299 265 253 241 249 250 240 227 231 225 224 230 228 234 237 245 240
259 270 277 274 283 287 285 262 250 246 229 226 184 183 206 215 241 259 267 274 284 287 272 260 268 300 317 319 309 289 275 272 267 246 230 229 234 221 224 225 234 239 247 243
289 284 281 276 275 272 276 272 254 229 203 190 173 203 218 240 251 260 278 283 278 286 271 205 261 281 291 297 309 286 290 290 284 278 268 258 247 224 216 222 230 232 239 239
302 298 312 325 327 309 307 307 258 223 216 197 211 217 242 243 238 249 244 259 239 232 236 234 220 239 262 277 290 252 272 295 293 290 284 273 241 234 228 229 231 229 228 226
321 330 324 345 333 327 327 325 308 288 277 240 223 241 251 278 266 261 263 262 259 232 221 231 224 231 230 250 254 246 233 244 261 278 271 262 266 253 230 230 228 224 228 223
315 316 305 306 301 286 269 285 270 280 290 280 273 272 275 275 270 258 232 241 280 233 215 219 222 232 233 251 249 251 252 249 259 258 260 260 252 248 242 231 226 222 223 225
282 274 282 287 278 275 302 273 243 238 254 251 247 242 234 245 228 249 282 240 229 223 225 229 232 234 241 243 236 249 254 256 262 268 265 258 254 249 246 238 227 216 209 213
280 280 273 276 280 277 277 277 243 248 236 240 242 240 234 263 266 224 243 259 253 241 235 243 244 249 257 220 231 240 249 256 257 268 270 272 259 248 241 236 231 215 214 225
276 283 263 278 275 268 256 259 270 257 247 250 252 249 234 226 222 262 201 241 260 257 245 243 243 253 252 230 240 246 249 249 262 267 267 264 260 246 235 225 228 215 207 207
279 280 284 274 266 271 266 255 253 262 258 270 266 248 251 240 232 241 251 255 246 248 244 248 233 246 237 233 236 241 248 252 263 274 274 271 254 239 221 206 210 195 160 168
267 269 270 275 259 250 250 244 252 262 249 249 259 254 245 247 238 238 245 247 243 239 228 221 223 243 232 232 243 243 246 249 264 268 258 249 224 208 171 183 166 151 133 144